Regional Weather Roundup
Issued by NWS Sterling, VA

Home | Current Version | Previous Version | Text Only | Print | Product List | Glossary Off
Versions: 1 2 3 4 5 6 7 8 9 10 11 12 13 14 15 16 17 18 19 20 21 22 23 24 25 26 27 28 29 30 31 32 33 34 35 36 37 38 39 40 41 42 43 44 45 46 47 48 49 50

000
ASUS41 KLWX 190310
RWRLWX

REGIONAL WEATHER ROUNDUP
NATIONAL WEATHER SERVICE BALTIMORE MD/WASHINGTON DC
1000 PM EST THU DEC 18 2014

Note: "FAIR" indicates few or no clouds below 12,000 feet
with no significant weather and/or obstructions to visibility.
 TC=TEMPERATURE CELSIUS

 * =Non NWS site. Station does not report precipitation (e.g. rain,
    snow, etc.), thunder, or fog.

DCZ001-MDZ009-015-VAZ040>042-051-053>054-190400-
WASHINGTON METRO

CITY           SKY/WX    TMP DP  RH WIND       PRES   REMARKS
WASHINGTON NAT CLOUDY    38  21  50 NW13      30.12F
DULLES         CLOUDY    33  22  63 NW6       30.11F
ANDREWS AFB    PTCLDY    37  23  56 NW8       30.09F
FT BELVOIR     CLOUDY    36  22  55 NW6       30.12F
QUANTICO       MOCLDY    36  22  56 N7        30.13F
COLLEGE PARK*  CLOUDY    36  23  60 W8        30.11F
LEESBURG*      CLOUDY    34  28  80 NW5       30.12S
MANASSAS*      CLOUDY    36  25  64 NW9       30.12R WCI  29
GAITHERSBURG*  CLOUDY    32  21  64 NW8       30.13S WCI  25

$$

MDZ006>007-011-014-190400-
BALTIMORE METRO

CITY           SKY/WX    TMP DP  RH WIND       PRES   REMARKS
BWI AIRPORT    CLOUDY    34  23  64 W6        30.09F
MD SCIENCE CTR   N/A     36  22  56 MISG      30.10S
MARTIN STATE   CLOUDY    37  27  65 S5        30.11F
ANNAPOLIS      CLOUDY    36  23  59 NW7       30.10F
FORT MEADE*    CLOUDY    34  25  69 W6        30.12F

$$

MDZ012-015-019>023-190400-
MARYLAND EASTERN SHORE

CITY           SKY/WX    TMP DP  RH WIND       PRES   REMARKS
OCEAN CITY     MOCLDY    35  25  66 W5        30.09F
SALISBURY      CLOUDY    38  25  59 W5        30.09S
BAY BRIDGE AP*   N/A     36  23  60 NW9       30.10F WCI  29
CAMBRIDGE*     CLOUDY    37  27  65 NW9       30.09F
EASTON*        CLOUDY    37  28  68 N7        30.12F

$$

MDZ017>025-190400-
SOUTHERN MARYLAND

CITY           SKY/WX    TMP DP  RH WIND       PRES   REMARKS
PATUXENT RIVER CLOUDY    37  22  54 NW10      30.10F
ST INIGOES     CLOUDY    37  21  52 NW3       30.09F
LEONARDTOWN*   CLOUDY    36  23  60 NW5       30.11F

$$

MDZ003>005-190400-
NORTH CENTRAL MARYLAND

CITY           SKY/WX    TMP DP  RH WIND       PRES   REMARKS
FREDERICK*     CLOUDY    36  21  55 NW6       30.13F
HAGERSTOWN APT CLOUDY    33  22  63 W7        30.09S
WESTMINSTER*   CLOUDY    32  23  69 W6        30.06F

$$

MDZ501>502-190400-
WESTERN MARYLAND

CITY           SKY/WX    TMP DP  RH WIND       PRES   REMARKS
OAKLAND*       CLOUDY    21 N/A N/A W7        30.02S FOG
CUMBERLAND*    CLOUDY    32  23  69 NW7       30.17S

$$

VAZ025>031-190400-
SHENANDOAH VALLEY

CITY           SKY/WX    TMP DP  RH WIND       PRES   REMARKS
WINCHESTER*    CLOUDY    34  19  55 NW6       30.10F
FRONT ROYAL*   CLOUDY    32  23  69 CALM      30.10S
LURAY*         CLOUDY    34  27  75 NE6       30.09S
NEW MARKET*    CLOUDY    32  23  70 NE3       30.08S
STAUNTON*      CLOUDY    35  24  62 CALM      30.09R
WAYNESBORO*    CLOUDY    34  24  66 NW5       30.06R

$$

WVZ021-048>050-054>055-190400-
EASTERN WEST VIRGINIA PANHANDLE

CITY           SKY/WX    TMP DP  RH WIND       PRES   REMARKS
MARTINSBURG    CLOUDY    34  20  56 NW6       30.11F
PETERSBURG*    CLOUDY    32  22  67 SE5       30.12S

$$

VAZ036>039-050-190400-
CENTRAL FOOTHILLS

CITY           SKY/WX    TMP DP  RH WIND       PRES   REMARKS
CHARLOTTESVILL CLOUDY    34  23  64 NE7       30.09R
CULPEPER*      CLOUDY    36  25  64 N5        30.11S
ORANGE*        CLOUDY    34  27  75 CALM      30.11R
GORDONSVILLE*  MOCLDY    33  22  63 NE6       30.10R
WARRENTON*     CLOUDY    35  28  76 N5        30.10S

$$

VAZ055>057-190400-
NORTH AND CENTRAL PIEDMONT

CITY           SKY/WX    TMP DP  RH WIND       PRES   REMARKS
FREDERICKSBRG* MOCLDY    37  25  61 N5        30.11F
STAFFORD*      MOCLDY    34  21  59 N6        30.14F

$$

NCZ024-NYZ072-PAZ021-071-VAZ022-071-190400-
OTHER REGIONAL OBSERVATIONS

CITY           SKY/WX    TMP DP  RH WIND       PRES   REMARKS
NEW YORK CITY  CLEAR     38  25  59 W8        29.99R
PHILADELPHIA   CLOUDY    38  25  59 W12       30.06S
PITTSBURGH     CLOUDY    28  21  75 W8        30.13F WCI  20
ROANOKE        CLOUDY    41  19  41 W7        30.10R
RICHMOND       CLOUDY    37  23  56 NE3       30.09F
RALEIGH        MOCLDY    42  29  59 CALM      30.10F

$$

ANZ530>537-190400-
MARINE OBSERVATIONS

STATION/POSITION TIME  TEMP    WIND        PRES
                       AIR SEA DIR/SP/G
                 (UTC) (F)     (DEG/KT/KT) (MB)
THOMAS PT LIGHT  0300   36 42  310/ 11/ 12 1020.4F
BALT KEY BRIDGE  0300   36     280/  8/ 10 1019.0F
COVE POINT       0300   36     350/ 14/ 16 1018.9F
LEWISETTA        0300   38 43  360/  6/ 10 1018.9S
SOLOMONS ISLAND  0300      44                N/A
PINEY POINT      0300           10/  9/ 10   N/A

$$




USA.gov is the U.S. government's official web portal to all federal, state and local government web resources and services.